Tiempo cada hora Alimkina

Hoy, 27 Julio, Martes

Tiempo Temperatura Precipitaciones Viento Presión Humedad
00:00 +19°C° 0 mm 1 mps 747 mmHg 79%
01:00 +19°C° 0 mm 1 mps 747 mmHg 80%
02:00 +18°C° 0 mm 1 mps 747 mmHg 84%
03:00 +18°C° 0.2 mm 1 mps 747 mmHg 85%
04:00 +18°C° 0.2 mm 1 mps 747 mmHg 86%
05:00 +19°C° 0.2 mm 1 mps 747 mmHg 87%
06:00 +20°C° 0.1 mm 1 mps 746 mmHg 81%
07:00 +22°C° 0.1 mm 1 mps 746 mmHg 74%
08:00 +24°C° 0.1 mm 1 mps 746 mmHg 68%
09:00 +26°C° 0 mm 2 mps 746 mmHg 60%
10:00 +27°C° 0 mm 2 mps 746 mmHg 53%
11:00 +29°C° 0 mm 2 mps 746 mmHg 46%
12:00 +29°C° 0 mm 2 mps 746 mmHg 46%
13:00 +29°C° 0 mm 2 mps 745 mmHg 46%
14:00 +29°C° 0 mm 2 mps 745 mmHg 47%
15:00 +27°C° 0.2 mm 2 mps 745 mmHg 53%
16:00 +26°C° 0.2 mm 2 mps 745 mmHg 59%
17:00 +25°C° 0.2 mm 2 mps 745 mmHg 65%
18:00 +23°C° 0.7 mm 2 mps 745 mmHg 71%
19:00 +21°C° 0.7 mm 2 mps 744 mmHg 78%
20:00 +19°C° 0.7 mm 2 mps 744 mmHg 84%
21:00 +18°C° 0.5 mm 2 mps 744 mmHg 85%
22:00 +18°C° 0.5 mm 2 mps 744 mmHg 86%
23:00 +18°C° 0.5 mm 2 mps 744 mmHg 87%

Mañana, 28 Julio, Miércoles

Tiempo Temperatura Precipitaciones Viento Presión Humedad
00:00 +18°C° 0.1 mm 2 mps 744 mmHg 87%
01:00 +18°C° 0.1 mm 2 mps 744 mmHg 87%
02:00 +18°C° 0.1 mm 2 mps 744 mmHg 87%
03:00 +18°C° 0.1 mm 2 mps 743 mmHg 85%
04:00 +19°C° 0.1 mm 2 mps 743 mmHg 83%
05:00 +19°C° 0.1 mm 2 mps 743 mmHg 82%
06:00 +20°C° 0 mm 2 mps 743 mmHg 79%
07:00 +21°C° 0 mm 2 mps 743 mmHg 75%
08:00 +23°C° 0 mm 2 mps 742 mmHg 72%
09:00 +24°C° 0 mm 2 mps 742 mmHg 66%
10:00 +25°C° 0 mm 2 mps 742 mmHg 61%
11:00 +26°C° 0 mm 3 mps 742 mmHg 55%
12:00 +24°C° 0.2 mm 2 mps 742 mmHg 63%
13:00 +23°C° 0.2 mm 2 mps 742 mmHg 71%
14:00 +20°C° 0.2 mm 2 mps 742 mmHg 79%
15:00 +20°C° 0.4 mm 2 mps 741 mmHg 82%
16:00 +19°C° 0.4 mm 2 mps 741 mmHg 85%
17:00 +18°C° 0.4 mm 2 mps 740 mmHg 87%
18:00 +18°C° 0.1 mm 2 mps 740 mmHg 88%
19:00 +18°C° 0.1 mm 2 mps 739 mmHg 89%
20:00 +18°C° 0.1 mm 2 mps 739 mmHg 90%
21:00 +17°C° 0 mm 2 mps 739 mmHg 91%
22:00 +17°C° 0 mm 2 mps 738 mmHg 92%
23:00 +17°C° 0 mm 2 mps 738 mmHg 93%

Pasado mañana, 29 Julio, Jueves

Tiempo Temperatura Precipitaciones Viento Presión Humedad
00:00 +16°C° 0 mm 2 mps 738 mmHg 94%
01:00 +16°C° 0 mm 1 mps 738 mmHg 95%
02:00 +16°C° 0 mm 1 mps 737 mmHg 96%
03:00 +16°C° 0 mm 2 mps 737 mmHg 95%
04:00 +16°C° 0 mm 2 mps 737 mmHg 95%
05:00 +16°C° 0 mm 2 mps 737 mmHg 95%
06:00 +18°C° 0 mm 2 mps 737 mmHg 90%
07:00 +20°C° 0 mm 2 mps 737 mmHg 85%
08:00 +23°C° 0 mm 2 mps 737 mmHg 80%
09:00 +24°C° 0 mm 3 mps 737 mmHg 73%
10:00 +26°C° 0 mm 3 mps 737 mmHg 66%
11:00 +27°C° 0 mm 4 mps 737 mmHg 59%
12:00 +28°C° 0 mm 4 mps 737 mmHg 55%
13:00 +29°C° 0 mm 4 mps 737 mmHg 51%
14:00 +29°C° 0 mm 5 mps 737 mmHg 47%
15:00 +29°C° 0 mm 4 mps 737 mmHg 50%
16:00 +28°C° 0 mm 4 mps 737 mmHg 53%
17:00 +28°C° 0 mm 3 mps 736 mmHg 56%
18:00 +26°C° 0 mm 3 mps 736 mmHg 61%
19:00 +24°C° 0 mm 2 mps 736 mmHg 66%
20:00 +23°C° 0 mm 2 mps 736 mmHg 71%
21:00 +21°C° 0.2 mm 2 mps 736 mmHg 77%
22:00 +20°C° 0.2 mm 2 mps 736 mmHg 82%
23:00 +19°C° 0.2 mm 2 mps 736 mmHg 87%

30 Julio, Viernes

Tiempo Temperatura Precipitaciones Viento Presión Humedad
00:00 +19°C° 0 mm 2 mps 737 mmHg 87%
01:00 +19°C° 0 mm 2 mps 737 mmHg 86%
02:00 +18°C° 0 mm 2 mps 737 mmHg 86%
03:00 +18°C° 0 mm 2 mps 737 mmHg 87%
04:00 +18°C° 0 mm 2 mps 737 mmHg 87%
05:00 +17°C° 0 mm 2 mps 737 mmHg 88%
06:00 +19°C° 0 mm 2 mps 737 mmHg 81%
07:00 +21°C° 0 mm 2 mps 738 mmHg 73%
08:00 +24°C° 0 mm 3 mps 738 mmHg 66%
09:00 +25°C° 0 mm 3 mps 738 mmHg 60%
10:00 +27°C° 0 mm 3 mps 738 mmHg 54%
11:00 +28°C° 0 mm 3 mps 738 mmHg 48%
12:00 +29°C° 0 mm 3 mps 738 mmHg 46%
13:00 +29°C° 0 mm 3 mps 738 mmHg 44%
14:00 +30°C° 0 mm 3 mps 738 mmHg 42%
15:00 +28°C° 0 mm 3 mps 738 mmHg 48%
16:00 +27°C° 0 mm 3 mps 738 mmHg 53%
17:00 +26°C° 0 mm 3 mps 738 mmHg 59%
18:00 +25°C° 0 mm 2 mps 738 mmHg 60%
19:00 +24°C° 0 mm 2 mps 737 mmHg 62%
20:00 +24°C° 0 mm 1 mps 737 mmHg 64%
21:00 +23°C° 0 mm 1 mps 738 mmHg 65%
22:00 +23°C° 0 mm 1 mps 738 mmHg 65%
23:00 +22°C° 0 mm 1 mps 738 mmHg 66%

31 Julio, Sábado

Tiempo Temperatura Precipitaciones Viento Presión Humedad
00:00 +22°C° 0 mm 1 mps 738 mmHg 68%
01:00 +21°C° 0 mm 1 mps 738 mmHg 69%
02:00 +20°C° 0 mm 2 mps 737 mmHg 70%
03:00 +20°C° 0 mm 2 mps 738 mmHg 71%
04:00 +20°C° 0 mm 2 mps 738 mmHg 73%
05:00 +20°C° 0 mm 2 mps 738 mmHg 74%
06:00 +23°C° 0 mm 2 mps 737 mmHg 68%
07:00 +25°C° 0 mm 3 mps 737 mmHg 62%
08:00 +26°C° 0 mm 3 mps 737 mmHg 57%
09:00 +27°C° 0 mm 4 mps 737 mmHg 51%
10:00 +29°C° 0 mm 4 mps 737 mmHg 45%
11:00 +30°C° 0 mm 5 mps 737 mmHg 39%
12:00 +30°C° 0 mm 5 mps 736 mmHg 40%
13:00 +30°C° 0 mm 6 mps 736 mmHg 41%
14:00 +30°C° 0 mm 6 mps 736 mmHg 42%
15:00 +28°C° 0.1 mm 6 mps 736 mmHg 51%
16:00 +27°C° 0.1 mm 6 mps 736 mmHg 59%
17:00 +24°C° 0.1 mm 6 mps 736 mmHg 68%
18:00 +23°C° 0 mm 5 mps 736 mmHg 72%
19:00 +22°C° 0 mm 4 mps 736 mmHg 76%
20:00 +21°C° 0 mm 3 mps 736 mmHg 80%
21:00 +20°C° 0 mm 3 mps 736 mmHg 84%
22:00 +19°C° 0 mm 2 mps 736 mmHg 87%
23:00 +19°C° 0 mm 2 mps 736 mmHg 91%

1 Agosto, Domingo

Tiempo Temperatura Precipitaciones Viento Presión Humedad
00:00 +19°C° 0 mm 2 mps 736 mmHg 92%
01:00 +18°C° 0 mm 2 mps 736 mmHg 92%
02:00 +18°C° 0 mm 2 mps 737 mmHg 93%
03:00 +18°C° 0 mm 2 mps 737 mmHg 91%
04:00 +18°C° 0 mm 2 mps 737 mmHg 89%
05:00 +19°C° 0 mm 1 mps 737 mmHg 87%
06:00 +20°C° 0 mm 2 mps 737 mmHg 75%
07:00 +21°C° 0 mm 2 mps 737 mmHg 64%
08:00 +24°C° 0 mm 3 mps 737 mmHg 53%
09:00 +25°C° 0 mm 3 mps 738 mmHg 48%
10:00 +26°C° 0 mm 3 mps 738 mmHg 44%
11:00 +27°C° 0 mm 3 mps 738 mmHg 39%
12:00 +27°C° 0 mm 4 mps 738 mmHg 39%
13:00 +28°C° 0 mm 4 mps 738 mmHg 39%
14:00 +28°C° 0 mm 4 mps 738 mmHg 38%
15:00 +27°C° 0 mm 4 mps 738 mmHg 41%
16:00 +27°C° 0 mm 4 mps 738 mmHg 43%
17:00 +26°C° 0 mm 4 mps 738 mmHg 46%
18:00 +25°C° 0 mm 3 mps 738 mmHg 51%
19:00 +23°C° 0 mm 2 mps 738 mmHg 56%
20:00 +21°C° 0 mm 1 mps 739 mmHg 60%
21:00 +20°C° 0 mm 1 mps 739 mmHg 61%
22:00 +20°C° 0 mm 1 mps 739 mmHg 62%
23:00 +19°C° 0 mm 1 mps 739 mmHg 62%
Mostrar más

Necesitamos Su Consentimiento

Meteoprog y nuestros Proveedores de Servicios pueden almacenar y acceder a sus datos personales como cookies, identificadores de dispositivo u otras tecnologías similares de su dispositivo y procesar dichos datos para personalizar contenido y anuncios, además de ofrecer funciones de redes sociales y analizar el tráfico.

  • Almacenar y/o acceder a información en su dispositivo

    Se puede almacenar o acceder a cookies, identificadores de dispositivo u otra información de su dispositivo para los fines anteriormente indicados.

  • Anuncios y contenido personalizados, medición de anuncios y contenido, percepciones del público, y desarrollo de productos

    Los anuncios y el contenido pueden personalizarse en base a su perfil. Se pueden añadir más datos para personalizar mejor los anuncios y contenidos. Se puede medir el rendimiento de los anuncios y contenidos. Se puede obtener la percepción sobre el público que ha visto los anuncios y contenidos. Dichos datos pueden usarse para desarrollar o mejorar la experiencia del usuario, sistemas y software.

Al hacer clic en ‘Estoy De Acuerdo’ usted permitirá el uso de las cookies, identificadores de dispositivo, balizas web u otras tecnologías similares indicadas. Su configuración puede cambiarse desde el navegador de su dispositivo.

Para ciertos fines, los intereses legítimos pueden ser considerados por encima del consentimiento. Puede leer más sobre ello en nuestra Política de Privacidad y Cookies.